Showing default

COSMOS 1564, 15003

Orbit data source: Space-Track

COSMOS 1564, 15003 is a payload satellite owned by GUKOS (CIS) in LEO that was launched on Mon, 28 May 1984 UTC via a KOSMOS 11K65M launch vehicle from the Plesetsk Missile And Space Complex (PKMTR). Payload-class satellites include a variety of spacecraft equipped with specific instruments for various scientific and technological missions. These include communications satellites like Starlink; space stations such as the ISS; scientific satellites like the Hubble; Earth observation satellites from companies like Planet Labs, Umbra, and HawkEye 360; GPS; miniature CubeSats for education and research; and military/defense satellites.

Loading next visibility...
Identifier
15003, 1984-052F
Orbit
LEO
Country
Flag of CISCIS
Related business
Manufacturer
NPO PM
Mission
Spacecraft
Bus & Motor
STRELA-1 11F625, Unknown motor
Mass
60 kg wet, 60 kg dry
Launch date (UTC)
1984-05-28 (42 years ago)
Launch vehicle
KOSMOS 11K65M
Launch site
Plesetsk Missile And Space Complex (PKMTR)
Object type
Payload
Rocket body
Debris
Shape & HBR
Unknown
Radar Cross Section
Medium (>0.1 m² and <1 m²)

Expand to show TLE details & history
Last TLE update: 10 hours ago

TLE from 10 hours ago
0 COSMOS 1564
1 15003U 84052F   26036.94891389 -.00000009  00000-0  42099-4 0  9994
2 15003  74.0156 353.6079 0032572 146.8492 270.8548 12.53582946907825
Epoch: 2026-02-05T22:46Z
TLE epoch observation values (Epoch: 2026-02-05T22:46:26.160Z)
Latitude
54.12228°
Longitude
-100.88544°
Altitude
1,457.75 km
Speed
7.139 km/s
True Right ascension
01h 07m 16s
True Declination
53° 58' 24"
Sunlit
Object was in daylight at epoch
Visualization orbit readout
Latitude
Unknown
Longitude
Unknown
Altitude
Unknown
Speed
Unknown
Apparent Right ascension
Unknown
Apparent Declination
Unknown
Sunlit
N/A
Visualization observer readout
Local Sidereal Time
11:07:21
Azimuth
Unknown
Elevation
Unknown
Doppler factor
Unknown
Orbital elements
Apogee altitude
1,472.865 km
Perigee altitude
1,421.887 km
Semi-major axis
7,825.513 km
Eccentricity
0.00326
Inclination
74.0156°
RAAN
353.6079°
Arg. of periapsis
146.8492°
True anomaly
270.48157°
Mean anomaly
270.8548°
Eccentric anomaly
270.66819°
Mean motion
3.13526 °/min
Orbital period
114.82 mins
BSTAR
0.000042099
Loading maneuver chart data...
Computing Atmospheric mass density...
Loading historical data...
Loading historical data...
Loading historical data...
Loading historical data...
Loading historical data...
Loading historical data...
Loading historical data...

Documentation

Showing up to 5 results
|